This demonstration page uses our WeatherBlox Daily Observations layout. Learn more.

Hourly Observations for October 23, 2015

Temp ( °F °C ) Dew Point ( °F °C ) Humidity (%) Winds ( mph kmh ) Pressure ( in mb ) Visibility ( mi km ) Precip ( " mm )
12:15 am 00:15 Cloudy 59 14.8 57 13.8 94 94 S 12 19 29.88 1012 10 16.0934 0 0
12:35 am 00:35 Cloudy 58 14.7 57 13.7 94 94 S 15 24 29.88 1012 10 16.0934 0 0
12:55 am 00:55 Cloudy 58 14.7 57 13.7 94 94 S 15 24 29.83 1010 10 16.0934 0 0
1:15 am 01:15 Cloudy 59 14.8 57 13.8 94 94 S 15 24 29.83 1010 10 16.0934 0 0
1:35 am 01:35 Cloudy 59 15 57 14 94 94 S 17 28 29.83 1010 10 16.0934 0.01 0.254
1:55 am 01:55 Cloudy 59 15.1 57 13.9 93 93 S 13 20 29.83 1010 10 16.0934 0.01 0.254
2:15 am 02:15 Cloudy 59 15.1 57 14 93 93 S 16 26 29.8 1009 10 16.0934 0 0
2:35 am 02:35 Cloudy 59 15.1 57 14 93 93 S 13 20 29.8 1009 10 16.0934 0 0
2:55 am 02:55 Cloudy 59 15.2 57 14 93 93 S 17 28 29.8 1009 10 16.0934 0 0
3:15 am 03:15 Cloudy 59 15.1 57 13.8 92 92 S 13 20 29.8 1009 10 16.0934 0 0
3:35 am 03:35 Cloudy 59 15.2 57 14 93 93 S 12 19 29.8 1009 10 16.0934 0 0
3:55 am 03:55 Cloudy 59 15.2 57 14 93 93 S 16 26 29.77 1008 10 16.0934 0 0
4:15 am 04:15 Cloudy 59 15.2 57 13.8 91 91 S 13 20 29.77 1008 10 16.0934 0 0
4:35 am 04:35 Cloudy 59 15.1 57 13.8 92 92 S 12 19 29.77 1008 10 16.0934 0 0
4:55 am 04:55 Cloudy 59 15.1 57 13.8 92 92 S 10 17 29.77 1008 10 16.0934 0 0
5:15 am 05:15 Cloudy 59 15.1 57 13.8 92 92 S 10 17 29.74 1007 10 16.0934 0 0
5:35 am 05:35 Cloudy 59 15.2 57 13.7 91 91 S 13 20 29.74 1007 10 16.0934 0 0
5:55 am 05:55 Cloudy 59 15.2 57 13.7 91 91 S 9 15 29.74 1007 10 16.0934 0 0
6:15 am 06:15 Cloudy 59 15.2 57 13.7 91 91 S 13 20 29.74 1007 10 16.0934 0 0
6:35 am 06:35 Cloudy 60 15.4 57 13.7 90 90 SSW 16 26 29.74 1007 10 16.0934 0 0
6:55 am 06:55 Cloudy 60 15.3 56 13.6 90 90 S 12 19 29.74 1007 10 16.0934 0 0
7:15 am 07:15 Cloudy 59 15.1 56 13.5 90 90 S 9 15 29.74 1007 10 16.0934 0 0
7:35 am 07:35 Cloudy 59 15.1 56 13.6 91 91 S 10 17 29.74 1007 10 16.0934 0 0
7:55 am 07:55 Cloudy 59 15.1 57 13.7 91 91 S 10 17 29.74 1007 10 16.0934 0 0
8:15 am 08:15 Cloudy 59 15 56 13.6 91 91 S 12 19 29.74 1007 10 16.0934 0 0
8:35 am 08:35 Cloudy 59 15.1 56 13.6 91 91 S 12 19 29.74 1007 10 16.0934 0 0
8:55 am 08:55 Cloudy 59 15.1 56 13.6 91 91 S 10 17 29.74 1007 10 16.0934 0 0
9:15 am 09:15 Cloudy 60 15.5 57 13.7 89 89 S 15 24 29.74 1007 10 16.0934 0 0
9:35 am 09:35 Cloudy 61 16 57 14 88 88 SSW 17 28 29.74 1007 10 16.0934 0 0
9:55 am 09:55 Cloudy 60 15.7 56 13.6 87 87 SW 13 20 29.74 1007 10 16.0934 0 0
10:15 am 10:15 Mostly Cloudy 62 16.7 57 14 84 84 SW 14 22 29.74 1007 10 16.0934 0 0
10:35 am 10:35 Mostly Cloudy 62 16.9 56 13.6 81 81 SW 12 19 29.74 1007 10 16.0934 0 0
10:55 am 10:55 Mostly Cloudy 60 15.4 53 11.7 79 79 W 12 19 29.74 1007 10 16.0934 0 0
11:15 am 11:15 Sunny 60 15.6 51 10.5 72 72 WNW 16 26 29.74 1007 10 16.0934 0 0
11:35 am 11:35 Partly Cloudy 60 15.8 51 10.5 71 71 WNW 12 19 29.74 1007 10 16.0934 0 0
11:55 am 11:55 Partly Cloudy 61 16.3 50 9.8 66 66 WNW 12 19 29.74 1007 10 16.0934 0 0
12:15 pm 12:15 Sunny 62 16.7 49 9.4 62 62 WNW 12 19 29.74 1007 10 16.0934 0 0
12:35 pm 12:35 Partly Cloudy 63 17.2 48 9.1 59 59 W 12 19 29.74 1007 10 16.0934 0 0
12:55 pm 12:55 Partly Cloudy 64 18 48 8.9 55 55 W 13 20 29.71 1006 10 16.0934 0 0
1:15 pm 13:15 Partly Cloudy 62 16.7 48 8.8 60 60 W 10 17 29.74 1007 10 16.0934 0 0
1:35 pm 13:35 Mostly Cloudy 61 16.3 48 8.9 62 62 WNW 14 22 29.77 1008 10 16.0934 0 0
1:55 pm 13:55 Mostly Cloudy 63 17 48 8.8 59 59 WNW 17 28 29.74 1007 10 16.0934 0 0
2:15 pm 14:15 Mostly Cloudy 61 16.2 48 8.8 62 62 NW 10 17 29.74 1007 10 16.0934 0 0
2:35 pm 14:35 Mostly Cloudy 63 17.2 46 8 55 55 WNW 20 31 29.74 1007 10 16.0934 0 0
2:55 pm 14:55 Cloudy 61 16.3 47 8.3 59 59 WNW 17 28 29.74 1007 10 16.0934 0 0
3:15 pm 15:15 Cloudy 60 15.8 47 8.6 63 63 WNW 14 22 29.77 1008 10 16.0934 0 0
3:35 pm 15:35 Cloudy 60 15.8 47 8.5 62 62 WNW 18 30 29.77 1008 10 16.0934 0 0
3:55 pm 15:55 Cloudy 59 15 47 8.5 65 65 WNW 16 26 29.77 1008 10 16.0934 0 0
4:15 pm 16:15 Cloudy 58 14.5 46 7.7 64 64 NW 20 31 29.8 1009 10 16.0934 0 0
4:35 pm 16:35 Cloudy 58 14.3 45 7.3 63 63 NW 17 28 29.83 1010 10 16.0934 0 0
4:55 pm 16:55 Cloudy 58 14.4 45 7.1 62 62 WNW 21 33 29.85 1011 10 16.0934 0 0
5:15 pm 17:15 Cloudy 57 14 45 7.3 64 64 NW 15 24 29.85 1011 10 16.0934 0 0
5:35 pm 17:35 Cloudy 57 13.7 46 7.5 66 66 NW 17 28 29.85 1011 10 16.0934 0 0
5:55 pm 17:55 Cloudy 56 13.6 45 7.1 65 65 NW 17 28 29.85 1011 10 16.0934 0 0
6:15 pm 18:15 Cloudy 56 13.5 44 6.5 63 63 NW 21 33 29.88 1012 10 16.0934 0 0
6:35 pm 18:35 Cloudy 55 13 44 6.5 65 65 NNW 15 24 29.88 1012 10 16.0934 0 0
6:55 pm 18:55 Cloudy 55 13 44 6.6 65 65 NW 15 24 29.91 1013 10 16.0934 0 0
7:15 pm 19:15 Cloudy 55 12.7 44 6.9 68 68 NNW 13 20 29.91 1013 10 16.0934 0 0
7:35 pm 19:35 Cloudy 54 12.3 45 7.1 71 71 NNW 14 22 29.97 1015 10 16.0934 0 0
7:55 pm 19:55 Cloudy 54 12.2 45 7.1 71 71 NNW 15 24 29.97 1015 10 16.0934 0 0
8:15 pm 20:15 Cloudy with Light Rain 53 11.5 47 8.1 80 80 NW 10 17 29.97 1015 10 16.0934 0 0
8:35 pm 20:35 Cloudy 54 12 46 7.8 76 76 NNW 15 24 29.97 1015 10 16.0934 0 0
8:55 pm 20:55 Cloudy 54 12 46 7.5 74 74 NNW 12 19 30 1016 10 16.0934 0 0
9:15 pm 21:15 Cloudy 54 12.4 44 6.8 69 69 NNW 13 20 30 1016 10 16.0934 0 0
9:35 pm 21:35 Cloudy 55 12.5 44 6.4 67 67 NW 18 30 29.97 1015 10 16.0934 0 0
9:55 pm 21:55 Cloudy 54 12.2 43 6.2 67 67 NW 13 20 30.03 1017 10 16.0934 0 0
10:15 pm 22:15 Cloudy 54 12.1 43 6.1 67 67 NW 15 24 30.03 1017 10 16.0934 0 0
10:35 pm 22:35 Partly Cloudy 51 10.7 43 6 73 73 NW 9 15 30.03 1017 10 16.0934 0 0
10:55 pm 22:55 Clear 50 10.1 43 6.1 76 76 NW 8 13 30.03 1017 10 16.0934 0 0
11:15 pm 23:15 Clear 49 9.5 43 6.1 80 80 NW 8 13 30.03 1017 10 16.0934 0 0
11:35 pm 23:35 Mostly Cloudy 49 9.5 43 6.3 81 81 WNW 8 13 30.06 1018 10 16.0934 0 0
11:55 pm 23:55 Mostly Cloudy 48 9 43 6.1 82 82 NW 8 13 30.09 1019 10 16.0934 0 0

Powered by AerisWeather